HST 1 20580U 90037B 26150.53921556 .00006911 00000+0 21966-3 0 9997 2 20580 28.4720 201.1735 0001466 321.2423 38.8067 15.30552064785860 POLAR 1 23802U 96013A 26150.32172904 .00000079 00000+0 00000+0 0 9990 2 23802 79.8355 227.2619 6452547 209.6954 88.7296 1.29846071144626 SWAS 1 25560U 98071A 26150.45598059 .00005513 00000+0 34949-3 0 9997 2 25560 69.8968 273.2400 0008488 276.9791 83.0407 15.09481688494596 CXO 1 25867U 99040B 26153.50844986 .00000595 00000+0 00000+0 0 9998 2 25867 55.9180 117.0902 7859055 310.3424 0.0689 0.37796441 17264 XMM-NEWTON 1 25989U 99066A 26151.39518084 .00000020 00000+0 00000+0 0 9996 2 25989 64.5741 283.1994 4678439 65.1913 0.1385 0.50128323 22920 TERRA 1 25994U 99068A 26150.50045006 .00000508 00000+0 11231-3 0 9998 2 25994 97.9466 200.7469 0000873 303.9967 193.3751 14.61087297407022 CLUSTER II-FM7 (SAMBA) 1 26410U 00041A 26152.52173266 .00007684 00000+0 00000+0 0 9999 2 26410 149.8860 47.8948 9033309 264.9086 0.0606 0.44869700 20230 CLUSTER II-FM8 (TANGO) 1 26464U 00045B 26148.17842810 .00003832 00000+0 00000+0 0 9997 2 26464 150.1226 48.2697 9032338 265.0681 3.6347 0.44417493 20228 ODIN 1 26702U 01007A 26150.53587626 .00161949 00000+0 13214-2 0 9993 2 26702 97.3881 190.4166 0005402 165.5322 194.6096 15.70091335386621 TIMED 1 26998U 01055B 26150.41193362 .00001696 00000+0 15770-3 0 9992 2 26998 74.0680 270.8067 0000133 65.6229 294.4969 14.95245117328160 CORIOLIS 1 27640U 03001A 26150.43996390 .00000131 00000+0 81997-4 0 9992 2 27640 98.7126 157.5957 0012804 263.6214 96.3505 14.19939635211701 SORCE 1 27651U 03004A 26150.07434735 .00004362 00000+0 32306-3 0 9996 2 27651 39.9926 5.0100 0018787 281.4218 78.4466 15.03602957269172 MOST 1 27843U 03031D 26150.47128904 .00000099 00000+0 65377-4 0 9999 2 27843 98.7044 158.4444 0008900 308.0314 52.0059 14.21318478188191 SCISAT 1 1 27858U 03036A 26150.33017230 .00000702 00000+0 94313-4 0 9997 2 27858 73.9296 206.8215 0008714 274.7027 85.3155 14.81427408228807 SWIFT 1 28485U 04047A 26150.55849722 .00057446 00000+0 51528-3 0 9997 2 28485 20.5548 320.7054 0003379 59.3763 300.7015 15.66499139184090 HINODE (SOLAR-B) 1 29479U 06041A 26150.47095346 .00000998 00000+0 17989-3 0 9996 2 29479 98.0550 166.8847 0017077 349.3212 10.7628 14.68594427 52276 SHIJIAN-6 02A (SJ-6 02A) 1 29505U 06046A 26150.54395618 .00010355 00000+0 53141-3 0 9992 2 29505 97.6369 191.4804 0003110 168.6697 191.4606 15.16715347 69594 SHIJIAN-6 02B (SJ-6 02B) 1 29506U 06046B 26150.55128713 .00002323 00000+0 18484-3 0 9991 2 29506 97.7162 179.7186 0013683 113.2300 247.0367 15.01326186 68091 FGRST (GLAST) 1 33053U 08029A 26149.89412979 .00004479 00000+0 16683-3 0 9994 2 33053 25.5839 331.4898 0008681 109.1858 250.9621 15.23834465993040 SDO 1 36395U 10005A 26150.33723204 -.00000079 00000+0 00000+0 0 9995 2 36395 34.6162 86.6116 0001387 39.8450 140.8638 1.00271689 59880 CRYOSAT 2 1 36508U 10013A 26150.50685836 .00000215 00000+0 52760-4 0 9993 2 36508 92.0339 273.0058 0002347 85.1357 275.0118 14.51903567855519 X-SAT 1 37389U 11015C 26150.46354334 .00000407 00000+0 19070-3 0 9994 2 37389 98.3495 128.3323 0014966 38.9020 321.3235 14.25201513785159 GCOM-W1 (SHIZUKU) 1 38337U 12025A 26150.46369733 .00000620 00000+0 14760-3 0 9997 2 38337 98.2018 91.2886 0001836 88.5208 26.4483 14.57105776746453 NUSTAR 1 38358U 12031A 26150.58334491 .00021911 00000+0 13012-2 0 9997 2 38358 6.0252 166.1667 0008983 213.0691 120.8403 15.08609776 1308 NEOSSAT 1 39089U 13009D 26150.43942284 .00000197 00000+0 82762-4 0 9997 2 39089 98.4172 330.8947 0009974 303.0977 56.9251 14.35819736694198 BRITE-AUSTRIA 1 39091U 13009F 26150.44687142 .00000232 00000+0 93631-4 0 9997 2 39091 98.3990 330.3225 0009060 296.3757 63.6499 14.36534373694504 IRIS 1 39197U 13033A 26150.52133801 .00001384 00000+0 16451-3 0 9991 2 39197 97.9338 349.8535 0024952 20.0729 340.1462 14.85845134697756 HISAKI (SPRINT-A) 1 39253U 13049A 26150.45276797 .00000146 00000+0 10614-3 0 9995 2 39253 29.7216 310.1738 0136879 233.1665 125.6283 13.55542425629015 CASSIOPE 1 39265U 13055A 26150.50487472 .00043169 -52775-6 48212-3 0 9996 2 39265 80.9147 88.1648 0298317 121.6891 241.3802 15.23623121664977 STSAT-3 1 39422U 13066G 26150.53341508 .00006022 00000+0 45579-3 0 9991 2 39422 97.6179 120.7095 0010520 93.5353 266.7075 15.02631051681553 SWARM B 1 39451U 13067A 26150.52258133 .00004147 00000+0 14869-3 0 9998 2 39451 87.7436 347.6848 0003357 96.4168 263.7463 15.28433710680549 SWARM A 1 39452U 13067B 26150.47399428 .00013518 00000+0 23586-3 0 9994 2 39452 87.3342 62.8187 0003092 88.7684 271.3931 15.50560466703508 SWARM C 1 39453U 13067C 26150.47389441 .00013872 00000+0 24203-3 0 9999 2 39453 87.3342 61.4000 0003062 88.0622 272.0989 15.50562836703469 BRITE-CA1 (TORONTO) 1 40020U 14033L 26150.30418664 .00000892 00000+0 14163-3 0 9999 2 40020 97.9715 279.5644 0077983 335.0936 24.6516 14.72649727639580 OCO 2 1 40059U 14035A 26150.50731230 .00000542 00000+0 13028-3 0 9993 2 40059 98.2014 92.0706 0001449 88.0255 272.1109 14.57094648633477 BRITE-PL2 (HEWELIUSZ) 1 40119U 14049B 26150.29651887 .00002505 00000+0 23696-3 0 9993 2 40119 97.9078 262.1614 0014399 164.3273 195.8395 14.94517347638777 MMS 1 1 40482U 15011A 26150.58334491 -.00000351 00000+0 00000+0 0 9995 2 40482 71.9394 349.0397 8336797 167.0506 302.7188 0.28439892 1393 MMS 2 1 40483U 15011B 26150.58334491 -.00000351 00000+0 00000+0 0 9996 2 40483 71.9396 349.0418 8337575 167.0563 302.7067 0.28439905 1399 MMS 3 1 40484U 15011C 26150.58334491 -.00000350 00000+0 00000+0 0 9996 2 40484 71.9420 349.0465 8336538 167.0549 302.6860 0.28448805 1391 MMS 4 1 40485U 15011D 26150.58334491 -.00000350 00000+0 00000+0 0 9997 2 40485 71.9390 349.0420 8336362 167.0585 302.6925 0.28439807 1398 ASTROSAT 1 40930U 15052A 26150.46565647 .00001977 00000+0 15895-3 0 9990 2 40930 5.9976 282.9239 0007614 144.5799 215.4835 14.82473284577196 DAMPE 1 41173U 15078A 26150.45338951 .00002069 00000+0 72134-4 0 9996 2 41173 97.4554 155.8338 0013202 132.8010 227.4343 15.30736337581836 PISAT 1 41784U 16059B 26150.43377279 .00001169 00000+0 20666-3 0 9990 2 41784 97.8178 151.6501 0027482 261.9226 97.8862 14.68949055517134 HXMT (HUIYAN) 1 42758U 17034A 26150.50481940 .00008068 00000+0 39263-3 0 9993 2 42758 43.0150 281.4910 0030781 30.6811 329.5830 15.18314318494972 FLYING LAPTOP 1 42831U 17042G 26150.52051839 .00004853 00000+0 38309-3 0 9994 2 42831 97.4607 306.7427 0018617 180.3357 179.7859 15.01017582483801 ZHANGHENG 1-01 (CSES-1) 1 43194U 18015C 26150.50428529 .00008709 00000+0 39936-3 0 9991 2 43194 97.6850 315.8158 0017648 332.2906 27.7387 15.20561658461958 SALSAT 1 46495U 20068K 26150.48338340 .00010365 00000+0 36458-3 0 9994 2 46495 97.8845 152.4744 0009941 15.8148 344.3399 15.29511811312654 IXPE 1 49954U 21121A 26150.50002315 .00013584 00000+0 75343-3 0 9993 2 49954 0.2306 90.7550 0007241 175.5816 194.1581 15.10070906 5910 SMILE 1 69123U 26109A 26144.65318427 -.00001976 00000+0 -42379-3 0 9994 2 69123 70.0007 229.2745 0009123 259.5159 100.4951 14.57062785 802